Location: Trementina
(35.4589°N, 104.4243°W)
Time: 18:09:15
(UTC+00:00)

N. Korean satellite - Visible Passes

Search period start: 27 November 2022 00:00
Search period end: 07 December 2022 00:00
Orbit: 422 x 454 km, 97.3° (Epoch: 26 November)

Date Brightness Start Highest point End Pass type
(mag) Time Alt. Az. Time Alt. Az. Time Alt. Az.
27 Nov 9.9 11:15:00 10° ENE 11:16:12 11° E 11:17:24 10° ESE visible
27 Nov 7.2 12:45:46 10° NNW 12:48:46 29° WNW 12:51:45 10° SW visible
28 Nov 6.6 12:06:51 10° NNE 12:10:15 70° E 12:13:37 10° S visible
29 Nov 9.3 11:29:02 10° NE 11:31:29 18° E 11:33:54 10° SE visible
29 Nov 7.8 13:01:26 10° NNW 13:03:51 18° WNW 13:06:16 10° WSW visible
30 Nov 6.3 12:21:57 10° N 12:25:21 67° WNW 12:28:41 10° SSW visible
01 Dec 9.6 00:21:42 10° SW 00:23:57 17° W 00:26:12 10° NW visible
01 Dec 8.4 11:43:34 10° NE 11:46:35 29° E 11:49:34 10° SSE visible
01 Dec 8.3 13:17:28 10° NW 13:18:46 12° WNW 13:20:04 10° W visible
02 Dec 6.8 12:37:05 10° N 12:40:16 38° WNW 12:43:25 10° SW visible
03 Dec 10.2 00:38:18 10° WSW 00:38:59 10° W 00:39:40 10° W visible
03 Dec 7.3 11:58:13 10° NNE 12:01:32 49° E 12:04:46 10° S visible
04 Dec 9.7 11:20:44 10° ENE 11:22:32 14° E 11:24:19 10° SE visible
04 Dec 7.5 12:52:14 10° NNW 12:55:01 24° WNW 12:57:46 10° SW visible
05 Dec 6.3 12:12:54 10° NNE 12:16:17 86° E 12:19:37 10° S visible
06 Dec 9.3 00:12:01 10° SSW 00:14:44 23° W 00:17:29 10° NW visible
06 Dec 9.0 11:34:39 10° NE 11:37:18 21° E 11:39:56 10° SSE visible
06 Dec 8.0 13:07:31 10° NNW 13:09:36 15° WNW 13:11:38 10° WSW visible
